QPF
0.19 0.22 0.24 0.23 0.19 0.16 0.13 0.12 0.12 0.10 0.09 0.08 0.08 0.08 0.09 0.10 0.07 0.09 0.09 0.06 0.05 0.06 0.07 0.08 0.09 0.10 0.10 0.09 0.10 0.11 0.11 0.11 0.11 0.10 0.08 0.06 0.05 0.05 0.04 0.04 0.06 0.08 0.09
0.15 0.21 0.26 0.24 0.18 0.13 0.11 0.10 0.11 0.10 0.08 0.08 0.08 0.08 0.09 0.08 0.06 0.07 0.09 0.09 0.08 0.08 0.07 0.07 0.11 0.14 0.14 0.14 0.13 0.12 0.10 0.09 0.08 0.07 0.06 0.05 0.05 0.04 0.03 0.03 0.05 0.07 0.09
0.15 0.17 0.20 0.18 0.15 0.11 0.08 0.08 0.08 0.08 0.08 0.08 0.09 0.09 0.09 0.08 0.07 0.06 0.07 0.09 0.11 0.10 0.06 0.06 0.09 0.12 0.11 0.10 0.09 0.08 0.07 0.07 0.07 0.06 0.05 0.05 0.04 0.04 0.04 0.03 0.03 0.04 0.05
0.16 0.16 0.14 0.14 0.15 0.14 0.09 0.08 0.08 0.08 0.09 0.10 0.11 0.09 0.07 0.07 0.06 0.06 0.08 0.10 0.10 0.10 0.09 0.08 0.09 0.10 0.10 0.08 0.07 0.08 0.07 0.07 0.07 0.06 0.06 0.06 0.05 0.05 0.05 0.05 0.05 0.06 0.05
0.09 0.09 0.10 0.12 0.13 0.14 0.11 0.08 0.07 0.10 0.12 0.13 0.14 0.09 0.06 0.06 0.08 0.08 0.08 0.07 0.09 0.10 0.09 0.09 0.08 0.09 0.08 0.07 0.07 0.09 0.09 0.07 0.06 0.05 0.06 0.07 0.05 0.04 0.05 0.05 0.06 0.07 0.08
0.06 0.06 0.08 0.10 0.12 0.15 0.14 0.10 0.10 0.12 0.13 0.12 0.10 0.10 0.09 0.09 0.10 0.09 0.07 0.04 0.06 0.06 0.07 0.08 0.10 0.08 0.06 0.05 0.04 0.05 0.06 0.06 0.05 0.06 0.06 0.05 0.04 0.04 0.04 0.04 0.04 0.05 0.07
0.05 0.06 0.08 0.10 0.11 0.12 0.11 0.08 0.09 0.10 0.11 0.10 0.12 0.15 0.16 0.15 0.11 0.09 0.07 0.07 0.09 0.07 0.06 0.08 0.11 0.12 0.08 0.06 0.05 0.05 0.05 0.06 0.07 0.07 0.06 0.04 0.04 0.04 0.05 0.05 0.05 0.05 0.05
0.02 0.04 0.05 0.05 0.07 0.09 0.10 0.10 0.09 0.08 0.10 0.11 0.13 0.16 0.16 0.16 0.13 0.09 0.08 0.09 0.08 0.09 0.10 0.11 0.12 0.12 0.09 0.11 0.10 0.06 0.06 0.06 0.06 0.05 0.06 0.07 0.06 0.05 0.06 0.08 0.10 0.08 0.07
0.01 0.02 0.03 0.03 0.04 0.05 0.07 0.09 0.08 0.09 0.10 0.12 0.11 0.13 0.16 0.16 0.14 0.09 0.05 0.05 0.06 0.09 0.10 0.11 0.12 0.13 0.11 0.12 0.11 0.07 0.05 0.04 0.03 0.04 0.05 0.08 0.07 0.06 0.07 0.07 0.10 0.11 0.10
0.02 0.02 0.03 0.04 0.04 0.04 0.06 0.06 0.06 0.08 0.08 0.11 0.12 0.10 0.10 0.12 0.13 0.09 0.06 0.06 0.05 0.08 0.09 0.09 0.11 0.13 0.12 0.12 0.12 0.09 0.05 0.02 0.02 0.03 0.05 0.08 0.09 0.07 0.06 0.05 0.06 0.07 0.08
0.03 0.03 0.02 0.03 0.03 0.04 0.04 0.05 0.06 0.05 0.05 0.06 0.08 0.08 0.09 0.09 0.09 0.10 0.10 0.07 0.05 0.06 0.08 0.08 0.08 0.10 0.10 0.11 0.11 0.09 0.06 0.03 0.02 0.02 0.03 0.04 0.04 0.04 0.03 0.03 0.04 0.05 0.07
0.04 0.03 0.02 0.03 0.04 0.05 0.04 0.04 0.05 0.05 0.05 0.05 0.06 0.06 0.07 0.07 0.08 0.09 0.10 0.08 0.07 0.05 0.06 0.07 0.08 0.10 0.09 0.08 0.07 0.06 0.04 0.03 0.02 0.02 0.01 0.01 0.01 0.01 0.01 0.02 0.03 0.04 0.07
0.06 0.04 0.02 0.03 0.05 0.05 0.05 0.05 0.06 0.05 0.04 0.05 0.06 0.06 0.06 0.06 0.07 0.09 0.09 0.08 0.08 0.07 0.08 0.08 0.08 0.10 0.08 0.07 0.06 0.04 0.03 0.02 0.02 0.03 0.03 0.02 0.01 0.01 0.01 0.02 0.02 0.03 0.04
0.03 0.03 0.02 0.02 0.03 0.03 0.03 0.05 0.04 0.04 0.05 0.06 0.06 0.07 0.07 0.06 0.09 0.08 0.08 0.10 0.10 0.10 0.10 0.08 0.09 0.12 0.09 0.06 0.05 0.03 0.02 0.02 0.02 0.02 0.02 0.01 0.00 0.00 0.00 0.00 0.01 0.01 0.03
0.03 0.02 0.02 0.02 0.02 0.03 0.03 0.04 0.04 0.04 0.05 0.05 0.06 0.07 0.07 0.06 0.08 0.08 0.09 0.09 0.10 0.10 0.10 0.10 0.09 0.08 0.08 0.06 0.06 0.02 0.02 0.01 0.02 0.02 0.01 0.01 0.01 0.01 0.01 0.02 0.03 0.03 0.04
0.03 0.03 0.03 0.03 0.02 0.02 0.02 0.03 0.03 0.04 0.04 0.05 0.07 0.07 0.06 0.05 0.06 0.07 0.08 0.09 0.11 0.11 0.09 0.09 0.10 0.07 0.05 0.04 0.05 0.02 0.02 0.01 0.02 0.02 0.02 0.01 0.01 0.01 0.02 0.03 0.03 0.03 0.03
0.02 0.02 0.03 0.03 0.03 0.03 0.03 0.03 0.02 0.03 0.03 0.05 0.05 0.04 0.05 0.06 0.07 0.06 0.06 0.06 0.09 0.09 0.09 0.11 0.12 0.10 0.07 0.06 0.04 0.03 0.03 0.02 0.02 0.03 0.02 0.01 0.01 0.01 0.01 0.02 0.02 0.03 0.03
0.01 0.01 0.02 0.02 0.02 0.02 0.02 0.02 0.02 0.02 0.02 0.03 0.05 0.05 0.05 0.05 0.05 0.05 0.05 0.04 0.06 0.07 0.08 0.14 0.15 0.12 0.09 0.06 0.04 0.03 0.02 0.02 0.02 0.02 0.02 0.02 0.01 0.01 0.01 0.02 0.04 0.04 0.04
0.01 0.01 0.01 0.01 0.02 0.02 0.02 0.02 0.02 0.02 0.02 0.02 0.03 0.03 0.02 0.03 0.03 0.04 0.03 0.03 0.04 0.05 0.07 0.10 0.10 0.08 0.06 0.06 0.05 0.03 0.02 0.02 0.01 0.01 0.01 0.02 0.02 0.01 0.02 0.04 0.05 0.05 0.03
0.02 0.02 0.01 0.01 0.01 0.01 0.01 0.01 0.02 0.02 0.02 0.02 0.02 0.01 0.02 0.02 0.02 0.03 0.02 0.03 0.03 0.04 0.06 0.07 0.07 0.06 0.06 0.06 0.05 0.05 0.05 0.05 0.03 0.02 0.01 0.01 0.01 0.01 0.02 0.03 0.03 0.03 0.03
0.02 0.02 0.02 0.02 0.02 0.02 0.01 0.01 0.01 0.01 0.02 0.02 0.02 0.02 0.02 0.03 0.03 0.04 0.03 0.04 0.05 0.05 0.07 0.08 0.08 0.07 0.07 0.06 0.05 0.06 0.06 0.06 0.06 0.04 0.03 0.01 0.01 0.01 0.02 0.02 0.02 0.02 0.01
0.02 0.02 0.03 0.03 0.02 0.02 0.02 0.01 0.01 0.01 0.02 0.03 0.03 0.03 0.02 0.03 0.03 0.04 0.03 0.03 0.03 0.03 0.06 0.07 0.07 0.07 0.06 0.05 0.06 0.06 0.06 0.06 0.05 0.04 0.04 0.03 0.02 0.01 0.01 0.01 0.01 0.01 0.01
0.03 0.03 0.02 0.02 0.01 0.02 0.01 0.01 0.00 0.01 0.01 0.02 0.03 0.03 0.01 0.01 0.01 0.02 0.02 0.01 0.01 0.01 0.01 0.02 0.03 0.04 0.04 0.05 0.06 0.05 0.05 0.06 0.06 0.06 0.05 0.04 0.05 0.04 0.02 0.02 0.02 0.02 0.02
0.04 0.03 0.02 0.01 0.02 0.02 0.02 0.02 0.01 0.00 0.00 0.01 0.01 0.01 0.02 0.01 0.01 0.01 0.01 0.01 0.01 0.01 0.01 0.01 0.01 0.01 0.02 0.02 0.03 0.03 0.04 0.03 0.03 0.03 0.04 0.03 0.04 0.05 0.04 0.04 0.04 0.05 0.05
0.04 0.03 0.03 0.03 0.03 0.03 0.03 0.02 0.01 0.00 0.00 0.00 0.00 0.01 0.01 0.01 0.01 0.01 0.01 0.01 0.02 0.02 0.01 0.01 0.01 0.01 0.01 0.01 0.01 0.02 0.02 0.02 0.02 0.02 0.02 0.03 0.02 0.03 0.03 0.03 0.03 0.04 0.04
0.03 0.04 0.05 0.05 0.04 0.03 0.04 0.02 0.01 0.00 0.01 0.01 0.01 0.01 0.01 0.01 0.01 0.01 0.01 0.01 0.02 0.02 0.01 0.01 0.01 0.01 0.00 0.01 0.01 0.01 0.01 0.02 0.02 0.02 0.02 0.03 0.03 0.04 0.03 0.02 0.02 0.02 0.03
MSLP
1013.51 1013.81 1014.07 1014.29 1014.49 1014.65 1014.79 1014.91 1014.99 1015.06 1015.11 1015.17 1015.26 1015.41 1015.64 1015.98 1016.42 1016.95 1017.54 1018.13 1018.68 1019.16 1019.53 1019.77 1019.91 1019.97 1019.99 1019.99 1020.03 1020.10 1020.21 1020.36 1020.51 1020.65 1020.76 1020.82 1020.83 1020.81 1020.77 1020.72 1020.68 1020.67 1020.69
1013.71 1013.93 1014.14 1014.34 1014.52 1014.70 1014.87 1015.03 1015.17 1015.29 1015.40 1015.50 1015.62 1015.77 1015.98 1016.27 1016.63 1017.08 1017.58 1018.10 1018.61 1019.07 1019.46 1019.75 1019.96 1020.09 1020.16 1020.21 1020.27 1020.33 1020.41 1020.51 1020.60 1020.69 1020.74 1020.77 1020.76 1020.73 1020.68 1020.63 1020.60 1020.60 1020.61
1013.83 1014.00 1014.19 1014.38 1014.58 1014.80 1015.01 1015.23 1015.43 1015.62 1015.79 1015.95 1016.09 1016.24 1016.42 1016.64 1016.91 1017.24 1017.62 1018.03 1018.45 1018.86 1019.23 1019.55 1019.80 1020.00 1020.14 1020.25 1020.33 1020.40 1020.46 1020.51 1020.55 1020.58 1020.59 1020.58 1020.55 1020.52 1020.48 1020.46 1020.45 1020.46 1020.49
1013.92 1014.07 1014.26 1014.47 1014.71 1014.96 1015.23 1015.50 1015.77 1016.02 1016.24 1016.43 1016.60 1016.75 1016.90 1017.05 1017.22 1017.41 1017.65 1017.92 1018.22 1018.54 1018.85 1019.16 1019.44 1019.68 1019.88 1020.05 1020.17 1020.25 1020.31 1020.33 1020.33 1020.32 1020.29 1020.25 1020.22 1020.19 1020.18 1020.19 1020.21 1020.26 1020.31
1014.05 1014.21 1014.41 1014.64 1014.91 1015.20 1015.51 1015.82 1016.12 1016.40 1016.66 1016.89 1017.08 1017.23 1017.35 1017.44 1017.51 1017.59 1017.68 1017.80 1017.96 1018.15 1018.38 1018.63 1018.89 1019.15 1019.39 1019.60 1019.76 1019.88 1019.94 1019.96 1019.95 1019.91 1019.87 1019.82 1019.79 1019.79 1019.80 1019.84 1019.90 1019.97 1020.03
1014.24 1014.41 1014.64 1014.90 1015.19 1015.50 1015.82 1016.13 1016.44 1016.73 1017.00 1017.24 1017.45 1017.61 1017.71 1017.77 1017.78 1017.75 1017.72 1017.69 1017.70 1017.75 1017.86 1018.02 1018.23 1018.47 1018.72 1018.95 1019.15 1019.30 1019.39 1019.43 1019.43 1019.39 1019.36 1019.32 1019.31 1019.33 1019.37 1019.44 1019.51 1019.59 1019.66
1014.49 1014.69 1014.94 1015.23 1015.53 1015.83 1016.13 1016.42 1016.70 1016.97 1017.23 1017.47 1017.68 1017.85 1017.96 1018.01 1017.99 1017.91 1017.78 1017.63 1017.50 1017.41 1017.38 1017.42 1017.55 1017.73 1017.95 1018.18 1018.39 1018.57 1018.70 1018.78 1018.81 1018.81 1018.81 1018.80 1018.81 1018.85 1018.91 1018.98 1019.06 1019.13 1019.18
1014.76 1014.99 1015.27 1015.57 1015.88 1016.16 1016.43 1016.67 1016.89 1017.11 1017.34 1017.56 1017.77 1017.96 1018.10 1018.17 1018.16 1018.05 1017.87 1017.64 1017.39 1017.17 1017.00 1016.91 1016.91 1017.01 1017.17 1017.37 1017.59 1017.78 1017.95 1018.07 1018.16 1018.21 1018.24 1018.28 1018.32 1018.37 1018.44 1018.51 1018.56 1018.60 1018.61
1014.98 1015.26 1015.56 1015.88 1016.19 1016.46 1016.68 1016.87 1017.03 1017.19 1017.36 1017.55 1017.76 1017.97 1018.15 1018.26 1018.28 1018.20 1018.00 1017.73 1017.40 1017.07 1016.77 1016.54 1016.42 1016.39 1016.46 1016.60 1016.79 1016.99 1017.19 1017.35 1017.49 1017.60 1017.69 1017.77 1017.84 1017.91 1017.97 1018.01 1018.03 1018.02 1017.98
1015.10 1015.41 1015.75 1016.10 1016.42 1016.68 1016.87 1017.02 1017.12 1017.22 1017.33 1017.49 1017.69 1017.91 1018.12 1018.29 1018.37 1018.33 1018.16 1017.87 1017.51 1017.09 1016.69 1016.33 1016.07 1015.92 1015.88 1015.94 1016.07 1016.25 1016.45 1016.65 1016.84 1017.00 1017.15 1017.27 1017.37 1017.44 1017.49 1017.50 1017.48 1017.42 1017.32
1015.05 1015.40 1015.78 1016.17 1016.51 1016.79 1016.98 1017.10 1017.16 1017.21 1017.28 1017.40 1017.58 1017.81 1018.05 1018.26 1018.40 1018.42 1018.30 1018.03 1017.65 1017.19 1016.71 1016.25 1015.87 1015.59 1015.43 1015.39 1015.44 1015.58 1015.76 1015.98 1016.20 1016.40 1016.59 1016.75 1016.88 1016.97 1017.01 1017.00 1016.94 1016.83 1016.68
1014.82 1015.20 1015.62 1016.06 1016.45 1016.76 1016.98 1017.10 1017.15 1017.17 1017.21 1017.30 1017.45 1017.67 1017.92 1018.17 1018.35 1018.43 1018.36 1018.14 1017.78 1017.31 1016.79 1016.25 1015.77 1015.38 1015.11 1014.95 1014.92 1014.99 1015.14 1015.34 1015.57 1015.80 1016.02 1016.22 1016.37 1016.47 1016.52 1016.50 1016.41 1016.28 1016.10
1014.42 1014.82 1015.28 1015.77 1016.21 1016.58 1016.84 1017.00 1017.07 1017.08 1017.10 1017.16 1017.28 1017.48 1017.72 1017.98 1018.20 1018.32 1018.31 1018.14 1017.82 1017.38 1016.84 1016.28 1015.74 1015.26 1014.89 1014.64 1014.51 1014.50 1014.59 1014.75 1014.96 1015.20 1015.44 1015.66 1015.84 1015.97 1016.03 1016.01 1015.93 1015.79 1015.62
1013.90 1014.31 1014.80 1015.32 1015.82 1016.25 1016.57 1016.78 1016.88 1016.91 1016.92 1016.96 1017.05 1017.21 1017.44 1017.68 1017.91 1018.07 1018.11 1018.00 1017.74 1017.35 1016.85 1016.29 1015.72 1015.20 1014.76 1014.43 1014.21 1014.12 1014.13 1014.24 1014.42 1014.64 1014.88 1015.11 1015.31 1015.46 1015.55 1015.56 1015.51 1015.39 1015.23
1013.33 1013.73 1014.22 1014.77 1015.31 1015.80 1016.18 1016.44 1016.59 1016.64 1016.66 1016.68 1016.74 1016.87 1017.06 1017.28 1017.51 1017.68 1017.76 1017.72 1017.53 1017.21 1016.78 1016.27 1015.72 1015.19 1014.72 1014.33 1014.05 1013.87 1013.81 1013.85 1013.97 1014.15 1014.37 1014.60 1014.81 1014.98 1015.10 1015.15 1015.13 1015.05 1014.93
1012.76 1013.14 1013.62 1014.17 1014.73 1015.25 1015.68 1015.99 1016.18 1016.27 1016.30 1016.32 1016.35 1016.45 1016.59 1016.79 1016.99 1017.18 1017.30 1017.31 1017.21 1016.98 1016.64 1016.21 1015.73 1015.23 1014.76 1014.35 1014.02 1013.78 1013.64 1013.61 1013.66 1013.78 1013.96 1014.16 1014.36 1014.55 1014.69 1014.78 1014.81 1014.78 1014.69
1012.24 1012.59 1013.04 1013.57 1014.13 1014.65 1015.10 1015.45 1015.68 1015.80 1015.85 1015.87 1015.90 1015.96 1016.07 1016.23 1016.43 1016.61 1016.76 1016.83 1016.81 1016.68 1016.45 1016.13 1015.74 1015.32 1014.89 1014.49 1014.14 1013.85 1013.65 1013.54 1013.51 1013.56 1013.67 1013.83 1014.01 1014.18 1014.34 1014.45 1014.51 1014.52 1014.48
1011.78 1012.09 1012.50 1013.00 1013.52 1014.04 1014.49 1014.85 1015.10 1015.25 1015.33 1015.36 1015.38 1015.43 1015.52 1015.66 1015.84 1016.03 1016.20 1016.32 1016.38 1016.35 1016.23 1016.03 1015.75 1015.42 1015.07 1014.70 1014.36 1014.05 1013.80 1013.62 1013.52 1013.49 1013.52 1013.62 1013.75 1013.89 1014.03 1014.15 1014.23 1014.27 1014.26
1011.32 1011.61 1011.99 1012.44 1012.93 1013.41 1013.85 1014.21 1014.47 1014.64 1014.74 1014.79 1014.83 1014.88 1014.96 1015.09 1015.26 1015.45 1015.64 1015.81 1015.93 1015.99 1015.98 1015.89 1015.73 1015.51 1015.24 1014.94 1014.63 1014.32 1014.05 1013.82 1013.64 1013.53 1013.49 1013.50 1013.56 1013.66 1013.76 1013.87 1013.95 1013.99 1014.00
1010.82 1011.11 1011.46 1011.88 1012.32 1012.77 1013.17 1013.52 1013.78 1013.97 1014.09 1014.17 1014.23 1014.30 1014.39 1014.52 1014.68 1014.88 1015.08 1015.28 1015.45 1015.58 1015.66 1015.68 1015.63 1015.51 1015.34 1015.12 1014.86 1014.59 1014.31 1014.05 1013.82 1013.64 1013.52 1013.46 1013.45 1013.48 1013.53 1013.60 1013.65 1013.69 1013.69
1010.22 1010.52 1010.87 1011.26 1011.67 1012.07 1012.44 1012.76 1013.03 1013.23 1013.37 1013.48 1013.57 1013.67 1013.78 1013.92 1014.09 1014.28 1014.49 1014.70 1014.90 1015.08 1015.23 1015.33 1015.38 1015.37 1015.29 1015.16 1014.98 1014.75 1014.50 1014.24 1013.99 1013.76 1013.58 1013.45 1013.37 1013.33 1013.33 1013.35 1013.36 1013.37 1013.36
1009.48 1009.81 1010.16 1010.53 1010.91 1011.28 1011.62 1011.92 1012.18 1012.39 1012.55 1012.70 1012.83 1012.95 1013.09 1013.25 1013.42 1013.61 1013.82 1014.03 1014.25 1014.46 1014.65 1014.81 1014.94 1015.02 1015.04 1015.00 1014.90 1014.75 1014.55 1014.31 1014.07 1013.83 1013.62 1013.45 1013.31 1013.22 1013.16 1013.13 1013.10 1013.07 1013.03
1008.60 1008.95 1009.32 1009.68 1010.04 1010.38 1010.69 1010.97 1011.22 1011.43 1011.62 1011.80 1011.96 1012.13 1012.30 1012.47 1012.66 1012.85 1013.05 1013.25 1013.47 1013.68 1013.90 1014.11 1014.29 1014.45 1014.56 1014.62 1014.61 1014.55 1014.42 1014.24 1014.04 1013.82 1013.61 1013.42 1013.26 1013.14 1013.04 1012.96 1012.89 1012.82 1012.74
1007.61 1007.98 1008.35 1008.70 1009.04 1009.35 1009.64 1009.90 1010.14 1010.36 1010.57 1010.77 1010.98 1011.18 1011.38 1011.58 1011.77 1011.97 1012.16 1012.35 1012.56 1012.78 1013.00 1013.24 1013.47 1013.69 1013.88 1014.03 1014.12 1014.15 1014.11 1014.01 1013.87 1013.71 1013.53 1013.36 1013.20 1013.07 1012.95 1012.85 1012.75 1012.65 1012.53
1006.56 1006.92 1007.27 1007.61 1007.92 1008.21 1008.47 1008.71 1008.94 1009.17 1009.40 1009.64 1009.88 1010.12 1010.35 1010.58 1010.79 1010.99 1011.19 1011.38 1011.58 1011.79 1012.03 1012.28 1012.55 1012.82 1013.07 1013.30 1013.47 1013.59 1013.65 1013.64 1013.58 1013.49 1013.37 1013.25 1013.12 1013.01 1012.90 1012.80 1012.69 1012.56 1012.42
1005.52 1005.83 1006.15 1006.45 1006.72 1006.98 1007.21 1007.44 1007.67 1007.90 1008.15 1008.42 1008.69 1008.97 1009.25 1009.51 1009.75 1009.98 1010.18 1010.38 1010.59 1010.81 1011.05 1011.32 1011.62 1011.92 1012.22 1012.50 1012.75 1012.94 1013.08 1013.16 1013.19 1013.17 1013.13 1013.07 1012.99 1012.92 1012.85 1012.76 1012.66 1012.54 1012.38
Thickness
5780 5779 5777 5776 5775 5773 5771 5769 5767 5765 5763 5763 5762 5761 5760 5759 5757 5755 5751 5750 5750 5748 5748 5747 5746 5745 5744 5742 5741 5740 5738 5737 5736 5734 5732 5731 5731 5730 5729 5728 5728 5727 5726
5779 5778 5776 5776 5774 5772 5771 5769 5767 5765 5763 5762 5760 5759 5759 5758 5756 5753 5750 5749 5748 5747 5746 5746 5745 5744 5743 5742 5740 5739 5737 5736 5734 5733 5731 5730 5729 5728 5727 5727 5726 5725 5724
5778 5777 5775 5774 5773 5772 5771 5768 5766 5764 5762 5761 5759 5758 5758 5757 5755 5753 5751 5748 5746 5745 5745 5744 5744 5742 5741 5740 5739 5737 5736 5735 5733 5732 5730 5729 5728 5727 5726 5725 5725 5724 5723
5777 5776 5775 5773 5772 5771 5770 5767 5765 5762 5761 5759 5757 5757 5756 5755 5753 5752 5750 5749 5746 5745 5744 5743 5742 5741 5739 5738 5737 5736 5734 5733 5732 5730 5729 5728 5727 5726 5725 5724 5723 5722 5722
5777 5776 5774 5772 5772 5770 5769 5767 5764 5761 5759 5757 5755 5755 5755 5753 5752 5751 5750 5748 5746 5745 5744 5742 5741 5739 5738 5737 5736 5734 5733 5731 5730 5729 5728 5726 5725 5724 5723 5722 5721 5721 5720
5775 5775 5774 5772 5771 5769 5766 5764 5762 5761 5759 5757 5756 5754 5753 5752 5751 5750 5749 5748 5746 5745 5744 5742 5739 5737 5736 5735 5734 5733 5731 5730 5728 5727 5726 5725 5724 5723 5722 5721 5720 5719 5718
5774 5774 5773 5771 5770 5768 5765 5764 5762 5759 5758 5757 5752 5748 5748 5750 5749 5748 5747 5746 5745 5744 5743 5741 5738 5737 5735 5733 5732 5730 5729 5728 5726 5725 5724 5723 5722 5721 5720 5719 5718 5717 5716
5774 5774 5771 5770 5769 5767 5764 5763 5761 5758 5757 5757 5750 5743 5738 5739 5743 5747 5745 5743 5743 5742 5741 5738 5736 5735 5733 5730 5728 5727 5726 5725 5724 5723 5722 5721 5720 5719 5718 5717 5716 5715 5714
5774 5772 5770 5770 5768 5767 5764 5762 5761 5758 5754 5755 5754 5747 5738 5733 5735 5740 5741 5741 5740 5739 5738 5737 5735 5732 5730 5728 5725 5723 5722 5721 5721 5720 5719 5718 5717 5716 5715 5714 5713 5712 5711
5774 5773 5771 5770 5768 5767 5764 5763 5763 5760 5756 5752 5753 5753 5750 5745 5736 5730 5734 5737 5737 5735 5735 5735 5732 5730 5727 5725 5723 5721 5719 5718 5717 5716 5715 5714 5713 5712 5711 5710 5709 5708 5707
5775 5773 5771 5770 5768 5766 5765 5764 5762 5760 5758 5755 5752 5751 5749 5747 5744 5734 5726 5728 5730 5732 5732 5731 5729 5727 5725 5722 5720 5717 5715 5713 5712 5710 5709 5708 5708 5707 5706 5705 5705 5704 5703
5773 5773 5771 5769 5768 5766 5765 5763 5762 5760 5757 5755 5754 5752 5749 5745 5741 5737 5728 5724 5723 5725 5728 5728 5726 5725 5722 5719 5716 5713 5711 5709 5707 5705 5703 5703 5702 5701 5701 5700 5699 5698 5697
5770 5771 5771 5769 5767 5766 5765 5763 5761 5758 5757 5754 5752 5751 5750 5748 5746 5741 5732 5725 5721 5721 5723 5723 5722 5721 5718 5715 5712 5710 5706 5704 5703 5700 5698 5697 5696 5695 5695 5694 5693 5692 5691
5773 5773 5771 5769 5767 5765 5764 5762 5760 5758 5756 5754 5752 5751 5749 5748 5747 5742 5735 5726 5718 5716 5716 5716 5716 5715 5713 5711 5708 5705 5702 5699 5697 5695 5693 5691 5690 5689 5688 5687 5686 5685 5683
5775 5773 5771 5768 5766 5764 5762 5760 5757 5755 5754 5752 5750 5749 5747 5746 5745 5742 5738 5732 5722 5712 5709 5711 5711 5711 5709 5706 5703 5700 5697 5695 5692 5690 5688 5686 5684 5683 5681 5680 5679 5677 5676
5774 5772 5769 5767 5765 5763 5761 5758 5755 5754 5751 5749 5748 5745 5744 5743 5742 5740 5737 5733 5729 5720 5711 5710 5709 5708 5706 5703 5699 5696 5693 5690 5687 5685 5682 5680 5678 5676 5674 5672 5671 5670 5668
5773 5770 5768 5765 5763 5760 5758 5756 5753 5751 5749 5747 5745 5743 5740 5739 5737 5736 5734 5731 5727 5721 5711 5707 5707 5705 5702 5698 5694 5692 5688 5685 5682 5680 5677 5675 5673 5670 5668 5666 5664 5663 5661
5771 5768 5766 5763 5761 5758 5756 5753 5750 5749 5746 5743 5741 5739 5737 5736 5733 5731 5729 5726 5723 5721 5713 5704 5702 5700 5697 5695 5691 5688 5685 5681 5679 5675 5672 5670 5667 5665 5662 5660 5658 5656 5654
5768 5766 5764 5760 5757 5755 5752 5750 5748 5746 5743 5741 5738 5735 5733 5731 5728 5727 5724 5722 5719 5717 5713 5705 5699 5697 5693 5691 5687 5684 5681 5678 5675 5672 5668 5665 5662 5659 5657 5654 5651 5649 5647
5766 5763 5761 5758 5755 5752 5749 5747 5744 5742 5740 5737 5735 5732 5730 5727 5724 5723 5720 5717 5714 5711 5707 5702 5696 5692 5688 5686 5682 5677 5674 5672 5670 5668 5664 5661 5657 5654 5651 5648 5645 5642 5640
5765 5761 5758 5754 5751 5748 5745 5743 5741 5739 5736 5733 5731 5728 5726 5723 5721 5718 5716 5712 5709 5705 5701 5696 5691 5687 5682 5679 5676 5674 5669 5666 5664 5662 5658 5655 5652 5648 5645 5642 5639 5636 5633
5762 5758 5754 5750 5747 5744 5740 5738 5737 5735 5732 5729 5726 5724 5722 5720 5716 5713 5711 5708 5704 5700 5695 5691 5687 5682 5678 5675 5672 5670 5665 5660 5656 5656 5654 5650 5648 5644 5641 5637 5633 5630 5627
5759 5755 5751 5747 5742 5737 5735 5734 5732 5730 5728 5725 5722 5719 5719 5716 5713 5710 5706 5702 5699 5696 5693 5689 5683 5679 5675 5672 5668 5664 5660 5656 5652 5651 5649 5645 5643 5640 5637 5633 5629 5624 5621
5755 5751 5747 5744 5739 5734 5730 5728 5726 5725 5723 5720 5717 5714 5711 5708 5706 5703 5701 5697 5693 5690 5688 5684 5680 5676 5673 5669 5665 5660 5656 5652 5650 5647 5644 5638 5637 5634 5632 5627 5622 5618 5614
5751 5747 5744 5740 5735 5729 5727 5725 5722 5721 5718 5715 5713 5709 5706 5703 5700 5698 5695 5690 5687 5684 5681 5678 5675 5671 5668 5664 5659 5655 5651 5646 5641 5639 5637 5632 5629 5626 5623 5619 5615 5611 5607
5747 5743 5738 5735 5731 5726 5723 5721 5717 5716 5713 5710 5707 5704 5700 5697 5693 5691 5688 5685 5680 5677 5675 5671 5667 5664 5661 5657 5653 5648 5644 5639 5635 5632 5630 5626 5622 5618 5613 5612 5608 5604 5599